Date String (YYYY-MM-DD hh:mm:ss) UTC,Instrument flags,absolute air pressure of the measurement (hPa),sample flow rate (lpm),inlet stack bypass flow (lpm),air temperature of the measurement (°C),ambient temperature measured by the external sensor (°C),aerosol sample conditioner tube jacket temperature (°C),OPC LED temperature (°C),internal box temperature (°C),relative humidity of the measurement (%),span deviation,mass concentration of particles derived from Lorenz-Mie calculation of OPC scattering (μg/m³),mass concentration of particles derived from Lorenz-Mie calculation of OPC scattering (μg/m³),mass concentration of particles derived from Lorenz-Mie calculation of OPC scattering (μg/m³)
DateTimeUTC,F1_M11,P_M11,Q1_M11,Q2_M11,T1_M11,T2_M11,T3_M11,T4_M11,T5_M11,U1_M11,ZSPAN_M11,X2_M11,X0_M11,X1_M11
2024-04-21 10:00:00,SystemResetWarning,0836.6,5.00,000.00,018.8,018.2,000.0,027.4,020.6,023.9,0000.2,0007.77,0010.56,0007.54
2024-04-21 10:01:00,SystemResetWarning,0836.7,5.01,000.00,018.8,018.2,000.0,027.4,020.6,023.9,0000.0,0007.78,0010.06,0007.56
2024-04-21 10:02:00,SystemResetWarning,0836.7,5.00,000.00,018.8,018.2,000.0,027.4,020.6,023.9,0000.2,0007.81,0009.89,0007.59
2024-04-21 10:03:00,SystemResetWarning,0836.7,5.00,000.00,018.8,018.1,000.0,027.4,020.6,023.7,0000.2,0007.80,0009.88,0007.59
2024-04-21 10:04:00,SystemResetWarning,0836.7,4.99,000.00,018.8,018.1,000.0,027.4,020.5,023.7,0000.5,0007.75,0009.80,0007.56
2024-04-21 10:05:00,SystemResetWarning,0836.6,4.99,000.00,018.8,018.1,000.0,027.4,020.5,023.7,0000.7,0007.73,0009.76,0007.54
2024-04-21 10:06:00,SystemResetWarning,0836.6,4.99,000.00,018.8,018.1,000.0,027.4,020.5,023.6,0000.7,0007.71,0009.79,0007.53
2024-04-21 10:07:00,SystemResetWarning,0836.6,4.99,000.00,018.8,018.1,000.0,027.4,020.5,023.6,0000.6,0007.69,0009.78,0007.51
2024-04-21 10:08:00,SystemResetWarning,0836.6,5.00,000.00,018.8,018.1,000.0,027.4,020.5,023.6,0000.6,0007.67,0009.78,0007.49
2024-04-21 10:09:00,SystemResetWarning,0836.6,4.99,000.00,018.8,018.1,000.0,027.4,020.5,023.6,0000.2,0007.63,0009.76,0007.46
2024-04-21 10:10:00,SystemResetWarning,0836.6,5.01,000.00,018.8,018.1,000.0,027.3,020.5,023.6,0000.1,0007.61,0009.72,0007.44
2024-04-21 10:11:00,SystemResetWarning,0836.6,5.01,000.00,018.8,018.1,000.0,027.3,020.5,023.7,-000.1,0007.61,0009.73,0007.44
2024-04-21 10:12:00,SystemResetWarning,0836.6,4.99,000.00,018.7,018.1,000.0,027.3,020.4,024.4,-000.2,0007.63,0009.81,0007.45
2024-04-21 10:13:00,SystemResetWarning,0836.6,5.00,000.00,018.7,018.1,000.0,027.3,020.4,024.7,-000.2,0007.67,0009.87,0007.48
2024-04-21 10:14:00,SystemResetWarning,0836.6,4.99,000.00,018.7,018.1,000.0,027.3,020.4,024.1,-000.2,0007.69,0010.27,0007.50
2024-04-21 10:15:00,SystemResetWarning,0836.6,5.00,000.00,018.7,018.1,000.0,027.3,020.4,024.1,-000.3,0007.74,0010.58,0007.54
2024-04-21 10:16:00,SystemResetWarning,0836.6,5.00,000.00,018.7,018.0,000.0,027.3,020.4,023.9,-000.5,0007.79,0010.90,0007.59
2024-04-21 10:17:00,SystemResetWarning,0836.6,5.01,000.00,018.7,018.0,000.0,027.3,020.4,023.8,-000.1,0007.82,0011.00,0007.62
2024-04-21 10:18:00,SystemResetWarning,0836.5,5.00,000.00,018.7,018.0,000.0,027.3,020.4,023.9,0000.3,0007.87,0011.02,0007.67
2024-04-21 10:19:00,SystemResetWarning,0836.4,5.00,000.00,018.7,018.0,000.0,027.2,020.4,023.9,0000.4,0007.93,0011.09,0007.72
2024-04-21 10:20:00,SystemResetWarning,0836.5,5.00,000.00,018.6,018.0,000.0,027.2,020.3,023.9,0000.6,0007.98,0011.13,0007.77
2024-04-21 10:21:00,SystemResetWarning,0836.5,4.99,000.00,018.6,018.0,000.0,027.2,020.3,024.1,0000.7,0008.02,0011.29,0007.82
2024-04-21 10:22:00,SystemResetWarning,0836.5,4.99,000.00,018.6,018.0,000.0,027.2,020.3,024.0,0000.7,0008.03,0011.33,0007.83
2024-04-21 10:23:00,SystemResetWarning,0836.4,5.00,000.00,018.6,018.0,000.0,027.2,020.3,023.8,0000.9,0008.03,0011.29,0007.85
2024-04-21 10:24:00,SystemResetWarning,0836.5,5.00,000.00,018.6,018.0,000.0,027.2,020.3,023.8,0001.0,0008.02,0011.24,0007.85
2024-04-21 10:25:00,SystemResetWarning,0836.5,5.01,000.00,018.6,018.0,000.0,027.2,020.3,023.8,0001.1,0008.01,0011.08,0007.84
2024-04-21 10:26:00,SystemResetWarning,0836.5,5.00,000.00,018.6,018.0,000.0,027.2,020.3,023.8,0001.2,0008.01,0010.65,0007.83
2024-04-21 10:27:00,SystemResetWarning,0836.5,4.99,000.00,018.6,018.0,000.0,027.2,020.3,023.9,0001.4,0008.01,0010.55,0007.83
2024-04-21 10:28:00,SystemResetWarning,0836.4,5.00,000.00,018.6,018.0,000.0,027.2,020.3,023.9,0001.3,0008.01,0010.34,0007.82
2024-04-21 10:29:00,SystemResetWarning,0836.4,5.01,000.00,018.6,017.9,000.0,027.1,020.3,023.9,0001.0,0008.02,0010.34,0007.83
2024-04-21 10:30:00,SystemResetWarning,0836.4,5.01,000.00,018.6,017.9,000.0,027.1,020.2,023.8,0000.9,0008.02,0010.30,0007.83
2024-04-21 10:31:00,SystemResetWarning,0836.4,5.00,000.00,018.5,017.9,000.0,027.1,020.2,023.9,0000.6,0008.04,0010.32,0007.85
2024-04-21 10:32:00,SystemResetWarning,0836.4,5.00,000.00,018.5,017.9,000.0,027.1,020.2,024.0,0000.1,0008.07,0010.32,0007.87
2024-04-21 10:33:00,SystemResetWarning,0836.4,5.00,000.00,018.5,017.9,000.0,027.1,020.2,024.0,0000.5,0008.10,0010.26,0007.89
2024-04-21 10:34:00,SystemResetWarning,0836.4,4.99,000.00,018.5,017.9,000.0,027.1,020.2,024.0,0000.5,0008.14,0010.28,0007.93
2024-04-21 10:35:00,SystemResetWarning,0836.4,4.99,000.00,018.5,017.9,000.0,027.1,020.2,024.1,0000.6,0008.17,0010.32,0007.95
2024-04-21 10:36:00,SystemResetWarning,0836.4,4.99,000.00,018.5,017.9,000.0,027.1,020.2,024.2,0000.5,0008.22,0010.38,0007.99
2024-04-21 10:37:00,SystemResetWarning,0836.4,5.00,000.00,018.5,017.9,000.0,027.1,020.2,024.2,0000.2,0008.26,0010.40,0008.04
2024-04-21 10:38:00,SystemResetWarning,0836.4,5.00,000.00,018.5,017.9,000.0,027.1,020.2,024.2,-000.1,0008.29,0010.33,0008.08
2024-04-21 10:39:00,SystemResetWarning,0836.4,5.00,000.00,018.5,017.8,000.0,027.1,020.2,024.1,-000.1,0008.34,0010.43,0008.13
2024-04-21 10:40:00,SystemResetWarning,0836.4,5.00,000.00,018.5,017.8,000.0,027.0,020.2,024.1,-000.2,0008.34,0010.45,0008.14
2024-04-21 10:41:00,SystemResetWarning,0836.4,5.00,000.00,018.5,017.8,000.0,027.0,020.1,024.0,-000.2,0008.39,0010.54,0008.18
2024-04-21 10:42:00,SystemResetWarning,0836.4,5.00,000.00,018.4,017.8,000.0,027.0,020.1,024.1,0000.3,0008.42,0010.57,0008.21
2024-04-21 10:43:00,SystemResetWarning,0836.4,5.01,000.00,018.4,017.8,000.0,027.0,020.1,024.1,0000.8,0008.41,0010.57,0008.21
2024-04-21 10:44:00,SystemResetWarning,0836.4,5.00,000.00,018.4,017.8,000.0,027.0,020.1,024.2,0000.3,0008.42,0010.65,0008.21
2024-04-21 10:45:00,SystemResetWarning,0836.3,4.99,000.00,018.4,017.8,000.0,027.0,020.1,024.2,0000.4,0008.47,0010.73,0008.22
2024-04-21 10:46:00,SystemResetWarning,0836.3,4.99,000.00,018.4,017.8,000.0,027.0,020.1,024.2,0000.4,0008.48,0010.75,0008.23
2024-04-21 10:47:00,SystemResetWarning,0836.3,5.00,000.00,018.4,017.7,000.0,027.0,020.1,024.1,0000.4,0008.47,0010.79,0008.23
2024-04-21 10:48:00,SystemResetWarning,0836.3,5.01,000.00,018.4,017.7,000.0,027.0,020.1,024.1,0000.8,0008.51,0010.92,0008.24
2024-04-21 10:49:00,SystemResetWarning,0836.2,5.01,000.00,018.4,017.7,000.0,026.9,020.1,024.2,0000.8,0008.53,0010.99,0008.25
2024-04-21 10:50:00,SystemResetWarning,0836.3,4.99,000.00,018.3,017.7,000.0,026.9,020.0,024.3,0000.7,0008.54,0010.99,0008.25
2024-04-21 10:51:00,SystemResetWarning,0836.2,4.99,000.00,018.3,017.7,000.0,026.9,020.0,024.3,0000.5,0008.58,0011.32,0008.27
2024-04-21 10:52:00,SystemResetWarning,0836.3,5.01,000.00,018.3,017.7,000.0,026.9,020.0,024.3,0000.5,0008.59,0011.31,0008.28
2024-04-21 10:53:00,SystemResetWarning,0836.2,5.01,000.00,018.3,017.7,000.0,026.9,020.0,024.3,0000.5,0008.58,0011.57,0008.29
2024-04-21 10:54:00,SystemResetWarning,0836.3,5.01,000.00,018.3,017.7,000.0,026.9,020.0,024.4,0000.3,0008.62,0011.99,0008.32
2024-04-21 10:55:00,SystemResetWarning,0836.3,5.00,000.00,018.3,017.7,000.0,026.9,020.0,024.4,0000.3,0008.64,0012.41,0008.35
2024-04-21 10:56:00,SystemResetWarning,0836.2,4.99,000.00,018.3,017.7,000.0,026.9,020.0,024.4,-000.0,0008.64,0012.36,0008.37
2024-04-21 10:57:00,SystemResetWarning,0836.3,4.99,000.00,018.3,017.6,000.0,026.9,020.0,024.4,-000.2,0008.69,0012.45,0008.42
2024-04-21 10:58:00,SystemResetWarning,0836.2,4.99,000.00,018.3,017.6,000.0,026.9,020.0,024.4,-000.3,0008.77,0012.48,0008.49
2024-04-21 10:59:00,SystemResetWarning,0836.2,5.00,000.00,018.3,017.6,000.0,026.9,020.0,024.5,-000.3,0008.83,0012.51,0008.55
